Meteo Giornale » Osservazioni meteo Svizzera » Bern-Belp

ore: 21:50 - Osservazioni Meteo Bern-Belp
Lat. 46° 55' N Lon. 7° 30' E Alt. 505 metri s.l.m.

sereno Europe/Zurich

15 °C

Sereno

Temp. 24 Ore

7 °C

22 °C

Nord

1.8 Km/h

Dew point 13 °C

Umidità 87 %

Visibilità  10 Km

Il sole sorge alle ore 06:13

Il sole tramonta alle ore 20:58

Data e Ora Cielo e Fenomeni T °C DP °C Um. % Pres. hPa Vis. km Vento km/h
Oggi h: 21:50 sereno Sereno 15 13 87 1018 10 N 1.8
Oggi h: 21:20 sereno Sereno 17 12 72 1018 10 N 5.5
Oggi h: 20:50 sereno Sereno 19 11 59 1018 10 N 3.7
Oggi h: 20:20 sereno Sereno 20 11 56 1017 10 N 3.7
Oggi h: 19:50 sereno Sereno 21 11 52 1017 10 N 7.4
Oggi h: 19:20 sereno Sereno 22 11 49 1017 10 E/NE 9.3
Oggi h: 18:50 sereno Sereno 22 12 53 1017 10 E/NE 9.3
Oggi h: 18:20 poco_nuvoloso Poco Nuvoloso 22 11 49 1017 10 N/NE 11.1
Oggi h: 17:50 poco_nuvoloso Poco Nuvoloso 22 11 49 1017 10 NE 11.1
Oggi h: 17:20 poco_nuvoloso Poco Nuvoloso 22 12 53 1017 10 N 11.1
Oggi h: 16:50 poco_nuvoloso Poco Nuvoloso 22 12 53 1017 10 N/NE 11.1
Oggi h: 16:20 poco_nuvoloso Poco Nuvoloso 22 13 56 1017 10 N 11.1
Oggi h: 15:50 poco_nuvoloso Poco Nuvoloso 22 12 53 1017 10 NE 13
Oggi h: 15:20 sereno Sereno 21 12 56 1017 10 NE 11.1
Oggi h: 14:50 poco_nuvoloso Poco Nuvoloso 21 12 56 1017 10 NE 11.1
Oggi h: 14:20 poco_nuvoloso Poco Nuvoloso 21 12 56 1017 10 NE 14.8
Oggi h: 13:50 sereno Sereno 21 11 52 1017 10 N 13
Oggi h: 13:20 poco_nuvoloso Poco Nuvoloso 20 11 56 1017 10 NE 11.1
Oggi h: 12:50 poco_nuvoloso Poco Nuvoloso 20 11 56 1017 10 N 13
Oggi h: 12:20 poco_nuvoloso Poco Nuvoloso 20 11 56 1017 10 NE 11.1
Oggi h: 11:50 poco_nuvoloso Poco Nuvoloso 18 12 67 1018 10 N 5.5
Oggi h: 11:20 poco_nuvoloso Poco Nuvoloso 17 11 67 1018 10 N 5.5
Oggi h: 10:50 poco_nuvoloso Poco Nuvoloso 17 12 72 1018 10 S/SE 9.3
Oggi h: 10:20 poco_nuvoloso Poco Nuvoloso 16 10 67 1018 10 N 5.5
Oggi h: 09:50 poco_nuvoloso Poco Nuvoloso 15 12 82 1018 10 N 1.8
Oggi h: 09:20 poco_nuvoloso Poco Nuvoloso 13 12 93 1019 10 N 1.8
Oggi h: 08:50 poco_nuvoloso Poco Nuvoloso 12 11 93 1019 10 N 3.7
Oggi h: 08:20 poco_nuvoloso Poco Nuvoloso 11 11 100 1019 10 N 3.7
Oggi h: 07:50 poco_nuvoloso Poco Nuvoloso 10 10 100 1019 10 N 1.8
Oggi h: 07:20 poco_nuvoloso Poco Nuvoloso 9 9 100 1019 10 N 1.8
Oggi h: 06:50 poco_nuvoloso Poco Nuvoloso 8 8 100 1018 7 N 1.8
Oggi h: 06:20 poco_nuvoloso Poco Nuvoloso 7 7 100 1018 10 N 1.8
Oggi h: 05:50 nebbia Nebbia 7 7 100 1018 7 N 1.8
Oggi h: 05:20 poco_nuvoloso Poco Nuvoloso 8 8 100 1018 10 N 1.8
Oggi h: 04:50 sereno Sereno 8 8 100 1018 8 N 3.7
Oggi h: 04:20 sereno Sereno 8 8 100 1018 10 N 3.7
Oggi h: 03:50 sereno Sereno 9 9 100 1018 10 N 3.7
Oggi h: 03:20 sereno Sereno 8 8 100 1019 10 N 5.5
Oggi h: 02:50 sereno Sereno 9 9 100 1019 10 N 3.7
Oggi h: 02:20 sereno Sereno 9 9 100 1019 10 N 1.8
Oggi h: 01:50 sereno Sereno 9 9 100 1019 10 N 1.8
Oggi h: 01:20 poco_nuvoloso Poco Nuvoloso 9 9 100 1019 10 N 3.7
Oggi h: 00:50 poco_nuvoloso Poco Nuvoloso 10 10 100 1019 10 N 1.8
Oggi h: 00:20 sereno Sereno 9 9 100 1019 10 N 5.5
Ieri h: 23:50 sereno Sereno 10 10 100 1019 10 N 1.8
Ieri h: 23:20 sereno Sereno 10 10 100 1019 10 N 1.8
Ieri h: 22:50 sereno Sereno 11 11 100 1019 10 N 1.8